KickSat 2 (44046 NORAD) Tracking and Keplerian Element Data

This shows tracking and keplerian element data for the satellite.

Feedback or suggestion? Click here.




ElementValue
Catalog44046
NameKickSat 2
Epoch Orbit579
Epoch Day80.82800355
Epoch Year2019
RAAN64.4014
Inclination51.6353
Eccentricity0.0008032
Argument of Perigee106.4033
Mean Anonmoly253.8685
Mean Motion16.04429098
Decay Rate0.00436982
L11 44046U 18092G 19080.82800355 .00436982 98642-4 64116-3 0 9993
L22 44046 51.6353 64.4014 0008032 106.4033 253.8685 16.04429098 5793

Live tracking and technical data element details for KickSat 2 (NORAD 44046). KickSat 2 can be tracked NOW for your location showing map with azimuth and elevation plus other details from your city location.

Track the satellite on the map from your city or location and see movement details for azimuth, elevation, latitude, longitude, range, height, and movement on the map or in text.







IsCatalogInMostPopularTable: catalog: 44046, numindb: 19
Update: records affected: 1



GetName: 44046 KickSat 2

Hit Count: updated at: Sat, 23 Mar 2019 00:29:46 GMT